Home   Weather   Cochabamba   Past weeks

Flag for Bolivia Past Weather in Cochabamba, Bolivia — Yesterday and Last 2 Weeks

Now
45 °F

Broken clouds.


Feels Like: 40 °F
Forecast: 56 / 78 °F
Wind: 8 mph from Southeast

Location: La Paz / Alto

Current Time: Jan 16, 2017 at 9:22:49 am

Latest Report: Jan 16, 2017 at 8:00 am


Visibility: N/A

Pressure: 30.63 "Hg (22.35 "Hg at 2584m altitude)

Humidity: 76%

Dew Point: 37 °F

Location of CochabambaLocation

Past Weather in Cochabamba — Graph

°F

Cochabamba Temperature Yesterday

Maximum temperature yesterday: 63 °F (at 2:00 pm)
Minimum temperature yesterday: 41 °F (at 5:00 am)
Average temperature yesterday: 51 °F

High & Low Weather Summary for the Past Weeks

 TemperatureHumidityPressure
High63 °F (Jan 2, 3:00 pm)100% (Jan 8, 2:00 am)30.72 "Hg (Jan 8, 2:00 am)
Low39 °F (Jan 7, 5:00 am)32% (Jan 2, 3:00 pm)30.45 "Hg (Jan 3, 5:00 pm)
Average48 °F76%30.59 "Hg
* Reported Jan 1 8:00 am — Jan 16 8:00 am, Cochabamba, Weather by CustomWeather, © 2017

Note: Actual official high and low records may vary slightly from our data, if they occured in-between our weather recording intervals... More about our weather records

Advertising

Cochabamba Weather History for the Previous 24 Hours

Scroll right to see more
 ConditionsComfort  
Time TempWeatherWind HumidityBarometerVisibility
8:00 am
Mon, Jan 16
45 °FBroken clouds.8 mph76%30.63 "HgN/A
7:00 am43 °FBroken clouds.8 mph81%30.60 "HgN/A
6:00 am43 °FPartly cloudy.6 mph76%30.54 "HgN/A
5:00 am41 °FRain. Partly cloudy.16 mph87%30.54 "Hg4 mi
4:34 am43 °FRain. Partly cloudy.13 mph81%30.54 "Hg4 mi
4:00 am45 °FFog.6 mph93%30.51 "Hg2 mi
3:00 am43 °FFog.6 mph93%30.51 "Hg2 mi
2:00 am43 °FFog.5 mph93%30.54 "Hg2 mi
1:00 am45 °FFog.6 mph93%30.54 "Hg2 mi
12:00 am46 °FFog.8 mph87%30.54 "Hg2 mi
11:00 pm
Sun, Jan 15
46 °FPassing clouds.7 mph87%30.54 "HgN/A
10:00 pm48 °FPassing clouds.8 mph76%30.51 "HgN/A
9:00 pm48 °FPassing clouds.5 mph76%30.48 "HgN/A
8:00 pm52 °FPassing clouds.5 mph58%30.48 "HgN/A
7:00 pm54 °FPartly sunny.7 mph63%30.45 "HgN/A
6:00 pm57 °FPartly sunny.12 mph51%30.45 "HgN/A
5:00 pm61 °FBroken clouds.14 mph45%30.45 "HgN/A
4:00 pm61 °FBroken clouds.9 mph42%30.45 "HgN/A
3:00 pm63 °FBroken clouds.9 mph39%30.48 "HgN/A
2:00 pm63 °FThundershowers. Partly sunny.10 mph37%30.54 "HgN/A
1:00 pm61 °FPartly sunny.9 mph42%30.57 "HgN/A
12:00 pm59 °FPartly sunny.7 mph39%30.57 "HgN/A
11:00 am55 °FPartly sunny.6 mph55%30.60 "HgN/A
10:00 am54 °FPartly sunny.2 mph58%30.60 "HgN/A
9:00 am48 °FPartly sunny.5 mph71%30.60 "Hg4 mi
Weather by CustomWeather, © 2017

See weather overviewHow to use our weather pages